Time,TemperatureF,DewpointF,PressureIn,WindDirection,WindDirectionDegrees,WindSpeedMPH,WindSpeedGustMPH,Humidity,HourlyPrecipIn,Conditions,Clouds,dailyrainin,SoftwareType,DateUTC
2013-06-11 00:02:00,77.0,72.8,30.02,WSW,254,0.0,0.0,87,0.00,,,0.00,WeatherCatV1.02B3,2013-06-11 05:02:00,
2013-06-11 00:07:00,77.0,72.8,30.02,WSW,254,0.0,0.0,87,0.00,,,0.00,WeatherCatV1.02B3,2013-06-11 05:07:00,
2013-06-11 00:12:00,77.1,72.9,30.03,West,279,0.0,1.0,87,0.00,,,0.00,WeatherCatV1.02B3,2013-06-11 05:12:00,
2013-06-11 00:17:00,77.2,73.0,30.03,WSW,252,0.0,4.0,87,0.00,,,0.00,WeatherCatV1.02B3,2013-06-11 05:17:00,
2013-06-11 00:22:00,77.1,72.9,30.03,WSW,257,1.0,1.0,87,0.00,,,0.00,WeatherCatV1.02B3,2013-06-11 05:22:00,
2013-06-11 00:27:00,77.1,73.3,30.03,WNW,284,0.0,3.0,88,0.00,,,0.00,WeatherCatV1.02B3,2013-06-11 05:27:00,
2013-06-11 00:32:00,77.0,73.2,30.03,WSW,256,0.0,1.0,88,0.00,,,0.00,WeatherCatV1.02B3,2013-06-11 05:32:00,
2013-06-11 00:37:00,77.0,73.2,30.03,WSW,252,0.0,2.0,88,0.00,,,0.00,WeatherCatV1.02B3,2013-06-11 05:37:00,
2013-06-11 00:42:00,76.9,73.1,30.03,WSW,252,2.0,2.0,88,0.00,,,0.00,WeatherCatV1.02B3,2013-06-11 05:42:00,
2013-06-11 00:47:00,76.9,73.4,30.03,WSW,252,0.0,0.0,89,0.00,,,0.00,WeatherCatV1.02B3,2013-06-11 05:47:00,
2013-06-11 00:52:00,76.8,73.3,30.03,WSW,252,0.0,0.0,89,0.00,,,0.00,WeatherCatV1.02B3,2013-06-11 05:52:00,
2013-06-11 00:57:00,76.7,73.2,30.03,WSW,252,0.0,1.0,89,0.00,,,0.00,WeatherCatV1.02B3,2013-06-11 05:57:00,
2013-06-11 01:02:00,76.7,73.2,30.03,WSW,252,0.0,0.0,89,0.00,,,0.00,WeatherCatV1.02B3,2013-06-11 06:02:00,
2013-06-11 01:07:00,76.7,73.2,30.03,WSW,252,0.0,0.0,89,0.00,,,0.00,WeatherCatV1.02B3,2013-06-11 06:07:00,
2013-06-11 01:12:00,76.6,73.4,30.03,WSW,252,0.0,0.0,90,0.00,,,0.00,WeatherCatV1.02B3,2013-06-11 06:12:00,
2013-06-11 01:17:00,76.6,73.4,30.03,WSW,252,0.0,0.0,90,0.00,,,0.00,WeatherCatV1.02B3,2013-06-11 06:17:00,
2013-06-11 01:22:00,76.6,73.4,30.03,WSW,252,0.0,0.0,90,0.00,,,0.00,WeatherCatV1.02B3,2013-06-11 06:22:00,
2013-06-11 01:27:00,76.5,73.3,30.03,WSW,252,0.0,0.0,90,0.00,,,0.00,WeatherCatV1.02B3,2013-06-11 06:27:00,
2013-06-11 01:32:00,76.5,73.3,30.03,WSW,252,0.0,0.0,90,0.00,,,0.00,WeatherCatV1.02B3,2013-06-11 06:32:00,
2013-06-11 01:37:00,76.4,73.2,30.03,WSW,252,0.0,0.0,90,0.00,,,0.00,WeatherCatV1.02B3,2013-06-11 06:37:00,
2013-06-11 01:42:00,76.4,73.6,30.03,WSW,252,0.0,0.0,91,0.00,,,0.00,WeatherCatV1.02B3,2013-06-11 06:42:00,
2013-06-11 01:47:00,76.3,73.5,30.03,WSW,252,0.0,0.0,91,0.00,,,0.00,WeatherCatV1.02B3,2013-06-11 06:47:00,
2013-06-11 01:52:00,76.2,73.4,30.03,WSW,252,0.0,0.0,91,0.00,,,0.00,WeatherCatV1.02B3,2013-06-11 06:52:00,
2013-06-11 01:57:00,76.2,73.4,30.03,WSW,252,0.0,0.0,91,0.00,,,0.00,WeatherCatV1.02B3,2013-06-11 06:57:00,
2013-06-11 02:02:00,76.1,73.3,30.03,WSW,252,0.0,0.0,91,0.00,,,0.00,WeatherCatV1.02B3,2013-06-11 07:02:00,
2013-06-11 02:07:00,76.0,73.2,30.03,WSW,252,0.0,0.0,91,0.00,,,0.00,WeatherCatV1.02B3,2013-06-11 07:07:00,
2013-06-11 02:12:00,75.9,73.1,30.03,WSW,252,0.0,0.0,91,0.00,,,0.00,WeatherCatV1.02B3,2013-06-11 07:12:00,
2013-06-11 02:17:00,75.9,73.1,30.03,WSW,252,0.0,0.0,91,0.00,,,0.00,WeatherCatV1.02B3,2013-06-11 07:17:00,
2013-06-11 02:22:00,75.7,72.9,30.03,WSW,252,0.0,0.0,91,0.00,,,0.00,WeatherCatV1.02B3,2013-06-11 07:22:00,
2013-06-11 02:27:00,75.7,72.9,30.03,WSW,252,0.0,0.0,91,0.00,,,0.00,WeatherCatV1.02B3,2013-06-11 07:27:00,
2013-06-11 02:32:00,75.5,72.7,30.03,WSW,252,0.0,0.0,91,0.00,,,0.00,WeatherCatV1.02B3,2013-06-11 07:32:00,
2013-06-11 02:37:00,75.4,72.6,30.03,WSW,252,0.0,0.0,91,0.00,,,0.00,WeatherCatV1.02B3,2013-06-11 07:37:00,
2013-06-11 02:42:00,75.4,72.9,30.03,WSW,252,0.0,0.0,92,0.00,,,0.00,WeatherCatV1.02B3,2013-06-11 07:42:00,
2013-06-11 02:47:00,75.4,72.9,30.03,WSW,252,0.0,0.0,92,0.00,,,0.00,WeatherCatV1.02B3,2013-06-11 07:47:00,
2013-06-11 02:52:00,75.4,72.9,30.03,WSW,252,0.0,0.0,92,0.00,,,0.00,WeatherCatV1.02B3,2013-06-11 07:52:00,
2013-06-11 02:57:00,75.4,72.9,30.03,WSW,252,0.0,0.0,92,0.00,,,0.00,WeatherCatV1.02B3,2013-06-11 07:57:00,
2013-06-11 03:02:00,75.4,72.9,30.03,WSW,252,0.0,0.0,92,0.00,,,0.00,WeatherCatV1.02B3,2013-06-11 08:02:00,
2013-06-11 03:07:00,75.3,72.8,30.03,WSW,252,0.0,0.0,92,0.00,,,0.00,WeatherCatV1.02B3,2013-06-11 08:07:00,
2013-06-11 03:12:00,75.3,72.8,30.03,WSW,252,0.0,0.0,92,0.00,,,0.00,WeatherCatV1.02B3,2013-06-11 08:12:00,
2013-06-11 03:17:00,75.3,73.1,30.03,WSW,252,0.0,0.0,93,0.00,,,0.00,WeatherCatV1.02B3,2013-06-11 08:17:00,
2013-06-11 03:22:00,75.2,73.0,30.03,WSW,252,0.0,0.0,93,0.00,,,0.00,WeatherCatV1.02B3,2013-06-11 08:22:00,
2013-06-11 03:27:00,75.1,72.9,30.03,WSW,252,0.0,0.0,93,0.00,,,0.00,WeatherCatV1.02B3,2013-06-11 08:27:00,
2013-06-11 03:32:00,75.1,72.9,30.04,WSW,252,0.0,1.0,93,0.00,,,0.00,WeatherCatV1.02B3,2013-06-11 08:32:00,
2013-06-11 03:37:00,75.0,72.8,30.03,WSW,252,0.0,0.0,93,0.00,,,0.00,WeatherCatV1.02B3,2013-06-11 08:37:00,
2013-06-11 03:42:00,75.0,72.8,30.03,WSW,252,0.0,0.0,93,0.00,,,0.00,WeatherCatV1.02B3,2013-06-11 08:42:00,
2013-06-11 03:47:00,74.9,72.7,30.04,WSW,252,0.0,0.0,93,0.00,,,0.00,WeatherCatV1.02B3,2013-06-11 08:47:00,
2013-06-11 03:52:00,74.9,72.7,30.04,WSW,252,0.0,0.0,93,0.00,,,0.00,WeatherCatV1.02B3,2013-06-11 08:52:00,
2013-06-11 03:57:00,74.8,72.6,30.04,WSW,252,0.0,0.0,93,0.00,,,0.00,WeatherCatV1.02B3,2013-06-11 08:57:00,
2013-06-11 04:02:00,74.7,72.5,30.04,WSW,252,0.0,0.0,93,0.00,,,0.00,WeatherCatV1.02B3,2013-06-11 09:02:00,
2013-06-11 04:07:00,74.6,72.4,30.05,WSW,252,0.0,0.0,93,0.00,,,0.00,WeatherCatV1.02B3,2013-06-11 09:07:00,
2013-06-11 04:12:00,74.6,72.4,30.05,WSW,252,0.0,0.0,93,0.00,,,0.00,WeatherCatV1.02B3,2013-06-11 09:12:00,
2013-06-11 04:17:00,74.6,72.4,30.05,WSW,252,0.0,0.0,93,0.00,,,0.00,WeatherCatV1.02B3,2013-06-11 09:17:00,
2013-06-11 04:22:00,74.5,72.7,30.05,WSW,252,0.0,0.0,94,0.00,,,0.00,WeatherCatV1.02B3,2013-06-11 09:22:00,
2013-06-11 04:27:00,74.4,72.6,30.05,WSW,252,0.0,1.0,94,0.00,,,0.00,WeatherCatV1.02B3,2013-06-11 09:27:00,
2013-06-11 04:32:00,74.4,72.6,30.05,WSW,252,0.0,0.0,94,0.00,,,0.00,WeatherCatV1.02B3,2013-06-11 09:32:00,
2013-06-11 04:37:00,74.3,72.5,30.05,WSW,252,0.0,0.0,94,0.00,,,0.00,WeatherCatV1.02B3,2013-06-11 09:37:00,
2013-06-11 04:42:00,74.3,72.5,30.06,WSW,252,0.0,0.0,94,0.00,,,0.00,WeatherCatV1.02B3,2013-06-11 09:42:00,
2013-06-11 04:47:00,74.2,72.4,30.05,WSW,252,0.0,0.0,94,0.00,,,0.00,WeatherCatV1.02B3,2013-06-11 09:47:00,
2013-06-11 04:52:00,74.2,72.4,30.06,WSW,252,0.0,0.0,94,0.00,,,0.00,WeatherCatV1.02B3,2013-06-11 09:52:00,
2013-06-11 04:57:00,74.0,72.2,30.06,WSW,252,0.0,0.0,94,0.00,,,0.00,WeatherCatV1.02B3,2013-06-11 09:57:00,
2013-06-11 05:02:00,74.0,72.2,30.06,WSW,252,0.0,0.0,94,0.00,,,0.00,WeatherCatV1.02B3,2013-06-11 10:02:00,
2013-06-11 05:07:00,74.0,72.2,30.06,WSW,252,0.0,0.0,94,0.00,,,0.00,WeatherCatV1.02B3,2013-06-11 10:07:00,
2013-06-11 05:12:00,73.9,72.1,30.06,WSW,252,0.0,0.0,94,0.00,,,0.00,WeatherCatV1.02B3,2013-06-11 10:12:00,
2013-06-11 05:17:00,73.9,72.1,30.06,WSW,252,0.0,0.0,94,0.00,,,0.00,WeatherCatV1.02B3,2013-06-11 10:17:00,
2013-06-11 05:22:00,73.9,72.1,30.07,WSW,252,0.0,0.0,94,0.00,,,0.00,WeatherCatV1.02B3,2013-06-11 10:22:00,
2013-06-11 05:27:00,73.9,72.1,30.07,WSW,252,0.0,0.0,94,0.00,,,0.00,WeatherCatV1.02B3,2013-06-11 10:27:00,
2013-06-11 05:32:00,73.8,72.0,30.07,WSW,252,0.0,0.0,94,0.00,,,0.00,WeatherCatV1.02B3,2013-06-11 10:32:00,
2013-06-11 05:37:00,73.7,71.9,30.07,WSW,252,0.0,0.0,94,0.00,,,0.00,WeatherCatV1.02B3,2013-06-11 10:37:00,
2013-06-11 05:42:00,73.6,71.8,30.07,WSW,252,0.0,0.0,94,0.00,,,0.00,WeatherCatV1.02B3,2013-06-11 10:42:00,
2013-06-11 05:47:00,73.5,71.7,30.08,WSW,252,0.0,0.0,94,0.00,,,0.00,WeatherCatV1.02B3,2013-06-11 10:47:00,
2013-06-11 05:52:00,73.5,71.7,30.08,WSW,252,0.0,0.0,94,0.00,,,0.00,WeatherCatV1.02B3,2013-06-11 10:52:00,
2013-06-11 05:57:00,73.5,71.7,30.08,WSW,252,0.0,0.0,94,0.00,,,0.00,WeatherCatV1.02B3,2013-06-11 10:57:00,
2013-06-11 06:02:00,73.4,71.6,30.08,WSW,252,0.0,0.0,94,0.00,,,0.00,WeatherCatV1.02B3,2013-06-11 11:02:00,
2013-06-11 06:07:00,73.3,71.5,30.08,WSW,252,0.0,0.0,94,0.00,,,0.00,WeatherCatV1.02B3,2013-06-11 11:07:00,
2013-06-11 06:12:00,73.3,71.5,30.08,WSW,252,0.0,0.0,94,0.00,,,0.00,WeatherCatV1.02B3,2013-06-11 11:12:00,
2013-06-11 06:17:00,73.4,71.6,30.08,WSW,252,0.0,0.0,94,0.00,,,0.00,WeatherCatV1.02B3,2013-06-11 11:17:00,
2013-06-11 06:22:00,73.5,72.0,30.08,WSW,252,0.0,0.0,95,0.00,,,0.00,WeatherCatV1.02B3,2013-06-11 11:22:00,
2013-06-11 06:27:00,73.7,72.2,30.09,WSW,252,0.0,0.0,95,0.00,,,0.00,WeatherCatV1.02B3,2013-06-11 11:27:00,
2013-06-11 06:32:00,73.7,72.2,30.09,WSW,252,0.0,0.0,95,0.00,,,0.00,WeatherCatV1.02B3,2013-06-11 11:32:00,
2013-06-11 06:37:00,73.8,72.3,30.09,WSW,252,0.0,1.0,95,0.00,,,0.00,WeatherCatV1.02B3,2013-06-11 11:37:00,
2013-06-11 06:42:00,73.9,72.4,30.09,WSW,252,0.0,0.0,95,0.00,,,0.00,WeatherCatV1.02B3,2013-06-11 11:42:00,
2013-06-11 06:47:00,74.0,72.5,30.09,WSW,252,0.0,1.0,95,0.00,,,0.00,WeatherCatV1.02B3,2013-06-11 11:47:00,
2013-06-11 06:52:00,74.1,72.6,30.09,WSW,252,0.0,1.0,95,0.00,,,0.00,WeatherCatV1.02B3,2013-06-11 11:52:00,
2013-06-11 06:57:00,74.2,72.7,30.09,WSW,252,0.0,1.0,95,0.00,,,0.00,WeatherCatV1.02B3,2013-06-11 11:57:00,
2013-06-11 07:02:00,74.4,72.9,30.09,WSW,252,0.0,1.0,95,0.00,,,0.00,WeatherCatV1.02B3,2013-06-11 12:02:00,
2013-06-11 07:07:00,74.5,73.0,30.09,WSW,252,0.0,0.0,95,0.00,,,0.00,WeatherCatV1.02B3,2013-06-11 12:07:00,
2013-06-11 07:12:00,74.6,73.1,30.10,WSW,252,0.0,0.0,95,0.00,,,0.00,WeatherCatV1.02B3,2013-06-11 12:12:00,
2013-06-11 07:17:00,74.8,73.3,30.09,WSW,252,0.0,0.0,95,0.00,,,0.00,WeatherCatV1.02B3,2013-06-11 12:17:00,
2013-06-11 07:22:00,75.0,73.5,30.09,West,273,0.0,0.0,95,0.00,,,0.00,WeatherCatV1.02B3,2013-06-11 12:22:00,
2013-06-11 07:27:00,75.2,73.7,30.10,West,273,0.0,0.0,95,0.00,,,0.00,WeatherCatV1.02B3,2013-06-11 12:27:00,
2013-06-11 07:32:00,75.5,74.0,30.10,West,273,0.0,1.0,95,0.00,,,0.00,WeatherCatV1.02B3,2013-06-11 12:32:00,
2013-06-11 07:37:00,75.7,74.2,30.10,West,273,0.0,0.0,95,0.00,,,0.00,WeatherCatV1.02B3,2013-06-11 12:37:00,
2013-06-11 07:42:00,75.9,74.4,30.10,WNW,292,0.0,0.0,95,0.00,,,0.00,WeatherCatV1.02B3,2013-06-11 12:42:00,
2013-06-11 07:47:00,76.2,74.7,30.10,WNW,292,0.0,1.0,95,0.00,,,0.00,WeatherCatV1.02B3,2013-06-11 12:47:00,
2013-06-11 07:52:00,76.4,74.9,30.10,WNW,292,0.0,0.0,95,0.00,,,0.00,WeatherCatV1.02B3,2013-06-11 12:52:00,
2013-06-11 07:57:00,76.5,74.6,30.10,WNW,292,0.0,0.0,94,0.00,,,0.00,WeatherCatV1.02B3,2013-06-11 12:57:00,
2013-06-11 08:02:00,76.7,74.8,30.10,NW,311,0.0,0.0,94,0.00,,,0.00,WeatherCatV1.02B3,2013-06-11 13:02:00,
2013-06-11 08:07:00,77.0,75.1,30.10,WNW,288,0.0,0.0,94,0.00,,,0.00,WeatherCatV1.02B3,2013-06-11 13:07:00,
2013-06-11 08:12:00,77.3,75.1,30.11,NE,34,0.0,0.0,93,0.00,,,0.00,WeatherCatV1.02B3,2013-06-11 13:12:00,
2013-06-11 08:17:00,77.5,75.3,30.11,NE,34,0.0,0.0,93,0.00,,,0.00,WeatherCatV1.02B3,2013-06-11 13:17:00,
2013-06-11 08:22:00,77.8,75.6,30.11,NE,34,0.0,0.0,93,0.00,,,0.00,WeatherCatV1.02B3,2013-06-11 13:22:00,
2013-06-11 08:27:00,78.1,75.6,30.11,NE,34,0.0,0.0,92,0.00,,,0.00,WeatherCatV1.02B3,2013-06-11 13:27:00,
2013-06-11 08:32:00,78.4,75.5,30.11,NE,34,0.0,0.0,91,0.00,,,0.00,WeatherCatV1.02B3,2013-06-11 13:32:00,
2013-06-11 08:33:00,78.4,75.5,30.11,NE,34,0.0,0.0,91,0.00,,,0.00,WeatherCatV1.02B3,2013-06-11 13:33:00,
2013-06-11 08:38:00,78.7,75.8,30.11,West,277,0.0,1.0,91,0.00,,,0.00,WeatherCatV1.02B3,2013-06-11 13:38:00,
2013-06-11 08:43:00,78.9,75.7,30.11,West,281,0.0,1.0,90,0.00,,,0.00,WeatherCatV1.02B3,2013-06-11 13:43:00,
2013-06-11 08:48:00,79.1,75.9,30.11,West,281,1.0,1.0,90,0.00,,,0.00,WeatherCatV1.02B3,2013-06-11 13:48:00,
2013-06-11 08:53:00,79.3,75.8,30.11,West,281,0.0,1.0,89,0.00,,,0.00,WeatherCatV1.02B3,2013-06-11 13:53:00,
2013-06-11 08:58:00,79.5,75.6,30.12,NW,311,0.0,0.0,88,0.00,,,0.00,WeatherCatV1.02B3,2013-06-11 13:58:00,
2013-06-11 09:03:00,79.8,75.9,30.11,NW,311,0.0,0.0,88,0.00,,,0.00,WeatherCatV1.02B3,2013-06-11 14:03:00,
2013-06-11 09:08:00,80.3,76.1,30.11,NW,311,0.0,0.0,87,0.00,,,0.00,WeatherCatV1.02B3,2013-06-11 14:08:00,
2013-06-11 09:13:00,80.7,76.5,30.11,NW,311,0.0,0.0,87,0.00,,,0.00,WeatherCatV1.02B3,2013-06-11 14:13:00,
2013-06-11 09:18:00,81.0,76.0,30.11,NNE,26,0.0,1.0,85,0.00,,,0.00,WeatherCatV1.02B3,2013-06-11 14:18:00,
2013-06-11 09:23:00,81.6,76.3,30.11,NNW,340,0.0,1.0,84,0.00,,,0.00,WeatherCatV1.02B3,2013-06-11 14:23:00,
2013-06-11 09:28:00,81.8,76.1,30.11,NNW,338,0.0,2.0,83,0.00,,,0.00,WeatherCatV1.02B3,2013-06-11 14:28:00,
2013-06-11 09:33:00,82.0,75.2,30.11,NW,318,0.0,1.0,80,0.00,,,0.00,WeatherCatV1.02B3,2013-06-11 14:33:00,
2013-06-11 09:38:00,82.4,76.0,30.11,NW,318,0.0,1.0,81,0.00,,,0.00,WeatherCatV1.02B3,2013-06-11 14:38:00,
2013-06-11 09:43:00,82.8,76.4,30.11,NNW,337,1.0,1.0,81,0.00,,,0.00,WeatherCatV1.02B3,2013-06-11 14:43:00,
2013-06-11 09:48:00,83.2,75.6,30.11,NNW,344,0.0,1.0,78,0.00,,,0.00,WeatherCatV1.02B3,2013-06-11 14:48:00,
2013-06-11 09:53:00,83.5,75.9,30.11,NNW,344,0.0,0.0,78,0.00,,,0.00,WeatherCatV1.02B3,2013-06-11 14:53:00,
2013-06-11 09:58:00,83.7,76.1,30.10,SW,219,0.0,0.0,78,0.00,,,0.00,WeatherCatV1.02B3,2013-06-11 14:58:00,
2013-06-11 10:03:00,84.0,75.6,30.10,NNW,338,1.0,2.0,76,0.00,,,0.00,WeatherCatV1.02B3,2013-06-11 15:03:00,
2013-06-11 10:08:00,84.2,76.2,30.10,NNW,337,0.0,0.0,77,0.00,,,0.00,WeatherCatV1.02B3,2013-06-11 15:08:00,
2013-06-11 10:13:00,84.2,75.8,30.11,NNW,340,0.0,2.0,76,0.00,,,0.00,WeatherCatV1.02B3,2013-06-11 15:13:00,
2013-06-11 10:18:00,84.1,75.3,30.11,NNW,344,0.0,1.0,75,0.00,,,0.00,WeatherCatV1.02B3,2013-06-11 15:18:00,
2013-06-11 10:23:00,84.1,75.7,30.10,NNW,341,0.0,1.0,76,0.00,,,0.00,WeatherCatV1.02B3,2013-06-11 15:23:00,
2013-06-11 10:28:00,84.3,75.9,30.10,WNW,302,0.0,2.0,76,0.00,,,0.00,WeatherCatV1.02B3,2013-06-11 15:28:00,
2013-06-11 10:33:00,84.6,76.2,30.10,WNW,303,0.0,0.0,76,0.00,,,0.00,WeatherCatV1.02B3,2013-06-11 15:33:00,
2013-06-11 10:38:00,84.8,76.0,30.10,WNW,303,0.0,0.0,75,0.00,,,0.00,WeatherCatV1.02B3,2013-06-11 15:38:00,
2013-06-11 10:43:00,84.4,75.6,30.10,WNW,303,0.0,1.0,75,0.00,,,0.00,WeatherCatV1.02B3,2013-06-11 15:43:00,
2013-06-11 10:48:00,84.7,75.9,30.11,WNW,302,0.0,3.0,75,0.00,,,0.00,WeatherCatV1.02B3,2013-06-11 15:48:00,
2013-06-11 10:53:00,84.8,75.2,30.11,NNW,328,0.0,1.0,73,0.00,,,0.00,WeatherCatV1.02B3,2013-06-11 15:53:00,
2013-06-11 10:58:00,85.1,75.0,30.11,NW,326,0.0,0.0,72,0.00,,,0.00,WeatherCatV1.02B3,2013-06-11 15:58:00,
2013-06-11 11:03:00,85.2,75.1,30.11,NW,326,0.0,2.0,72,0.00,,,0.00,WeatherCatV1.02B3,2013-06-11 16:03:00,
2013-06-11 11:08:00,85.2,75.9,30.11,NW,326,0.0,0.0,74,0.00,,,0.00,WeatherCatV1.02B3,2013-06-11 16:08:00,
2013-06-11 11:13:00,85.7,76.0,30.11,NNW,327,0.0,1.0,73,0.00,,,0.00,WeatherCatV1.02B3,2013-06-11 16:13:00,
2013-06-11 11:18:00,85.6,75.5,30.11,NW,318,0.0,1.0,72,0.00,,,0.00,WeatherCatV1.02B3,2013-06-11 16:18:00,
2013-06-11 11:23:00,85.6,75.9,30.11,WSW,244,0.0,0.0,73,0.00,,,0.00,WeatherCatV1.02B3,2013-06-11 16:23:00,
2013-06-11 11:28:00,85.7,76.0,30.11,WNW,292,0.0,0.0,73,0.00,,,0.00,WeatherCatV1.02B3,2013-06-11 16:28:00,
2013-06-11 11:33:00,85.9,75.4,30.11,NW,326,0.0,2.0,71,0.00,,,0.00,WeatherCatV1.02B3,2013-06-11 16:33:00,
2013-06-11 11:38:00,85.9,76.2,30.10,NW,326,0.0,1.0,73,0.00,,,0.00,WeatherCatV1.02B3,2013-06-11 16:38:00,
2013-06-11 11:43:00,85.9,74.5,30.10,NNW,341,0.0,1.0,69,0.00,,,0.00,WeatherCatV1.02B3,2013-06-11 16:43:00,
2013-06-11 11:48:00,86.2,75.2,30.10,NNW,340,0.0,1.0,70,0.00,,,0.00,WeatherCatV1.02B3,2013-06-11 16:48:00,
2013-06-11 11:53:00,86.3,75.8,30.10,NNW,340,0.0,0.0,71,0.00,,,0.00,WeatherCatV1.02B3,2013-06-11 16:53:00,
2013-06-11 11:58:00,86.5,74.7,30.10,NNW,340,0.0,1.0,68,0.00,,,0.00,WeatherCatV1.02B3,2013-06-11 16:58:00,
2013-06-11 12:03:00,86.8,76.2,30.10,NNW,340,0.0,0.0,71,0.00,,,0.00,WeatherCatV1.02B3,2013-06-11 17:03:00,
2013-06-11 12:08:00,86.9,75.9,30.10,NNW,340,0.0,0.0,70,0.00,,,0.00,WeatherCatV1.02B3,2013-06-11 17:08:00,
2013-06-11 12:13:00,87.0,74.7,30.10,North,355,0.0,3.0,67,0.00,,,0.00,WeatherCatV1.02B3,2013-06-11 17:13:00,
2013-06-11 12:18:00,87.0,75.1,30.10,North,355,0.0,1.0,68,0.00,,,0.00,WeatherCatV1.02B3,2013-06-11 17:18:00,
2013-06-11 12:23:00,87.2,74.9,30.10,NNW,345,0.0,4.0,67,0.00,,,0.00,WeatherCatV1.02B3,2013-06-11 17:23:00,
2013-06-11 12:28:00,87.5,75.2,30.10,NNW,335,0.0,0.0,67,0.00,,,0.00,WeatherCatV1.02B3,2013-06-11 17:28:00,
2013-06-11 12:33:00,88.0,75.6,30.10,NNW,330,0.0,0.0,67,0.00,,,0.00,WeatherCatV1.02B3,2013-06-11 17:33:00,
2013-06-11 12:38:00,88.2,75.4,30.10,NNW,330,1.0,1.0,66,0.00,,,0.00,WeatherCatV1.02B3,2013-06-11 17:38:00,
2013-06-11 12:43:00,88.1,76.2,30.09,NNE,18,0.0,3.0,68,0.00,,,0.00,WeatherCatV1.02B3,2013-06-11 17:43:00,
2013-06-11 12:48:00,87.8,75.9,30.09,NNW,333,0.0,0.0,68,0.00,,,0.00,WeatherCatV1.02B3,2013-06-11 17:48:00,
2013-06-11 12:53:00,87.9,74.2,30.09,NNW,333,0.0,2.0,64,0.00,,,0.00,WeatherCatV1.02B3,2013-06-11 17:53:00,
2013-06-11 12:58:00,88.1,74.8,30.09,WNW,299,0.0,1.0,65,0.00,,,0.00,WeatherCatV1.02B3,2013-06-11 17:58:00,
2013-06-11 13:03:00,87.9,75.5,30.09,North,350,0.0,2.0,67,0.00,,,0.00,WeatherCatV1.02B3,2013-06-11 18:03:00,
2013-06-11 13:08:00,87.8,75.4,30.09,North,350,0.0,0.0,67,0.00,,,0.00,WeatherCatV1.02B3,2013-06-11 18:08:00,
2013-06-11 13:13:00,88.1,75.3,30.09,North,350,0.0,1.0,66,0.00,,,0.00,WeatherCatV1.02B3,2013-06-11 18:13:00,
2013-06-11 13:18:00,88.6,74.4,30.09,North,350,0.0,1.0,63,0.00,,,0.00,WeatherCatV1.02B3,2013-06-11 18:18:00,
2013-06-11 13:23:00,88.9,76.0,30.09,SW,230,0.0,1.0,66,0.00,,,0.00,WeatherCatV1.02B3,2013-06-11 18:23:00,
2013-06-11 13:28:00,89.2,77.2,30.08,WNW,295,1.0,1.0,68,0.00,,,0.00,WeatherCatV1.02B3,2013-06-11 18:28:00,
2013-06-11 13:33:00,89.5,76.6,30.08,WNW,302,0.0,0.0,66,0.00,,,0.00,WeatherCatV1.02B3,2013-06-11 18:33:00,
2013-06-11 13:38:00,89.7,75.4,30.08,NNW,347,0.0,2.0,63,0.00,,,0.00,WeatherCatV1.02B3,2013-06-11 18:38:00,
2013-06-11 13:43:00,89.4,75.1,30.08,North,355,1.0,1.0,63,0.00,,,0.00,WeatherCatV1.02B3,2013-06-11 18:43:00,
2013-06-11 13:48:00,89.5,75.7,30.08,NW,323,0.0,1.0,64,0.00,,,0.00,WeatherCatV1.02B3,2013-06-11 18:48:00,
2013-06-11 13:53:00,89.2,74.4,30.08,NNW,331,1.0,2.0,62,0.00,,,0.00,WeatherCatV1.02B3,2013-06-11 18:53:00,
2013-06-11 13:58:00,89.1,74.3,30.08,NNW,331,0.0,0.0,62,0.00,,,0.00,WeatherCatV1.02B3,2013-06-11 18:58:00,
2013-06-11 14:03:00,89.2,76.3,30.08,North,5,0.0,0.0,66,0.00,,,0.00,WeatherCatV1.02B3,2013-06-11 19:03:00,
2013-06-11 14:08:00,89.8,77.3,30.08,NNW,327,0.0,0.0,67,0.00,,,0.00,WeatherCatV1.02B3,2013-06-11 19:08:00,
2013-06-11 14:13:00,89.9,75.6,30.08,NNW,327,0.0,0.0,63,0.00,,,0.00,WeatherCatV1.02B3,2013-06-11 19:13:00,
2013-06-11 14:18:00,89.9,75.6,30.08,WNW,299,0.0,1.0,63,0.00,,,0.00,WeatherCatV1.02B3,2013-06-11 19:18:00,
2013-06-11 14:23:00,89.7,74.9,30.08,WNW,299,0.0,0.0,62,0.00,,,0.00,WeatherCatV1.02B3,2013-06-11 19:23:00,
2013-06-11 14:28:00,89.5,75.2,30.08,NNW,342,0.0,1.0,63,0.00,,,0.00,WeatherCatV1.02B3,2013-06-11 19:28:00,
2013-06-11 14:33:00,89.4,74.6,30.07,NNW,342,0.0,1.0,62,0.00,,,0.00,WeatherCatV1.02B3,2013-06-11 19:33:00,
2013-06-11 14:38:00,89.5,74.2,30.07,NNW,342,0.0,0.0,61,0.00,,,0.00,WeatherCatV1.02B3,2013-06-11 19:38:00,
2013-06-11 14:43:00,90.0,75.2,30.07,NNW,342,0.0,0.0,62,0.00,,,0.00,WeatherCatV1.02B3,2013-06-11 19:43:00,
2013-06-11 14:48:00,90.2,75.9,30.07,NNW,342,1.0,1.0,63,0.00,,,0.00,WeatherCatV1.02B3,2013-06-11 19:48:00,
2013-06-11 14:53:00,90.6,74.8,30.07,NW,321,1.0,2.0,60,0.00,,,0.00,WeatherCatV1.02B3,2013-06-11 19:53:00,
2013-06-11 14:58:00,90.0,75.2,30.07,West,278,0.0,3.0,62,0.00,,,0.00,WeatherCatV1.02B3,2013-06-11 19:58:00,
2013-06-11 15:03:00,89.7,77.2,30.06,NW,308,0.0,2.0,67,0.00,,,0.00,WeatherCatV1.02B3,2013-06-11 20:03:00,
2013-06-11 15:08:00,90.0,75.7,30.06,WNW,302,1.0,1.0,63,0.00,,,0.00,WeatherCatV1.02B3,2013-06-11 20:08:00,
2013-06-11 15:13:00,90.5,76.1,30.06,WNW,293,0.0,0.0,63,0.00,,,0.00,WeatherCatV1.02B3,2013-06-11 20:13:00,
2013-06-11 15:18:00,91.1,75.7,30.06,NW,318,0.0,1.0,61,0.00,,,0.00,WeatherCatV1.02B3,2013-06-11 20:18:00,
2013-06-11 15:23:00,91.9,76.0,30.06,NW,318,0.0,1.0,60,0.00,,,0.00,WeatherCatV1.02B3,2013-06-11 20:23:00,
2013-06-11 15:28:00,91.8,75.4,30.06,NW,318,0.0,1.0,59,0.00,,,0.00,WeatherCatV1.02B3,2013-06-11 20:28:00,
2013-06-11 15:33:00,90.9,75.1,30.06,NW,318,0.0,1.0,60,0.00,,,0.00,WeatherCatV1.02B3,2013-06-11 20:33:00,
2013-06-11 15:38:00,91.3,75.4,30.06,NW,318,0.0,1.0,60,0.00,,,0.00,WeatherCatV1.02B3,2013-06-11 20:38:00,
2013-06-11 15:43:00,91.7,75.3,30.05,NW,318,0.0,1.0,59,0.00,,,0.00,WeatherCatV1.02B3,2013-06-11 20:43:00,
2013-06-11 15:48:00,92.2,75.2,30.05,NW,318,0.0,0.0,58,0.00,,,0.00,WeatherCatV1.02B3,2013-06-11 20:48:00,
2013-06-11 15:53:00,92.2,74.7,30.05,North,0,0.0,1.0,57,0.00,,,0.00,WeatherCatV1.02B3,2013-06-11 20:53:00,
2013-06-11 15:58:00,92.0,75.6,30.05,North,0,0.0,0.0,59,0.00,,,0.00,WeatherCatV1.02B3,2013-06-11 20:58:00,
2013-06-11 16:03:00,92.0,75.6,30.05,NW,325,0.0,0.0,59,0.00,,,0.00,WeatherCatV1.02B3,2013-06-11 21:03:00,
2013-06-11 16:08:00,91.9,74.4,30.05,NW,325,0.0,1.0,57,0.00,,,0.00,WeatherCatV1.02B3,2013-06-11 21:08:00,
2013-06-11 16:13:00,92.3,74.3,30.04,NNW,335,0.0,3.0,56,0.00,,,0.00,WeatherCatV1.02B3,2013-06-11 21:13:00,
2013-06-11 16:18:00,91.5,74.6,30.04,SW,235,0.0,4.0,58,0.00,,,0.00,WeatherCatV1.02B3,2013-06-11 21:18:00,
2013-06-11 16:23:00,91.1,75.2,30.05,SW,235,0.0,1.0,60,0.00,,,0.00,WeatherCatV1.02B3,2013-06-11 21:23:00,
2013-06-11 16:28:00,91.9,75.5,30.04,WSW,249,1.0,3.0,59,0.00,,,0.00,WeatherCatV1.02B3,2013-06-11 21:28:00,
2013-06-11 16:33:00,92.3,75.9,30.04,WSW,247,0.0,2.0,59,0.00,,,0.00,WeatherCatV1.02B3,2013-06-11 21:33:00,
2013-06-11 16:38:00,91.9,76.0,30.05,NNW,331,0.0,0.0,60,0.00,,,0.00,WeatherCatV1.02B3,2013-06-11 21:38:00,
2013-06-11 16:43:00,91.6,75.7,30.05,NNW,331,0.0,0.0,60,0.00,,,0.00,WeatherCatV1.02B3,2013-06-11 21:43:00,
2013-06-11 16:48:00,91.8,74.4,30.04,NNW,331,1.0,1.0,57,0.00,,,0.00,WeatherCatV1.02B3,2013-06-11 21:48:00,
2013-06-11 16:53:00,92.2,74.7,30.04,NNW,331,0.0,1.0,57,0.00,,,0.00,WeatherCatV1.02B3,2013-06-11 21:53:00,
2013-06-11 16:58:00,92.4,75.9,30.04,West,274,0.0,3.0,59,0.00,,,0.00,WeatherCatV1.02B3,2013-06-11 21:58:00,
2013-06-11 17:03:00,91.9,74.4,30.04,NW,305,0.0,2.0,57,0.00,,,0.00,WeatherCatV1.02B3,2013-06-11 22:03:00,
2013-06-11 17:08:00,91.3,75.4,30.03,NW,305,0.0,0.0,60,0.00,,,0.00,WeatherCatV1.02B3,2013-06-11 22:08:00,
2013-06-11 17:13:00,91.2,75.3,30.03,SW,235,0.0,1.0,60,0.00,,,0.00,WeatherCatV1.02B3,2013-06-11 22:13:00,
2013-06-11 17:18:00,91.4,75.5,30.03,NW,310,2.0,3.0,60,0.00,,,0.00,WeatherCatV1.02B3,2013-06-11 22:18:00,
2013-06-11 17:23:00,91.3,75.4,30.03,NW,306,0.0,0.0,60,0.00,,,0.00,WeatherCatV1.02B3,2013-06-11 22:23:00,
2013-06-11 17:28:00,91.5,75.6,30.03,WNW,301,0.0,1.0,60,0.00,,,0.00,WeatherCatV1.02B3,2013-06-11 22:28:00,
2013-06-11 17:33:00,91.5,75.1,30.03,West,265,0.0,0.0,59,0.00,,,0.00,WeatherCatV1.02B3,2013-06-11 22:33:00,
2013-06-11 17:38:00,91.3,74.4,30.03,NW,310,0.0,1.0,58,0.00,,,0.00,WeatherCatV1.02B3,2013-06-11 22:38:00,
2013-06-11 17:43:00,91.0,74.6,30.03,WSW,250,0.0,2.0,59,0.00,,,0.00,WeatherCatV1.02B3,2013-06-11 22:43:00,
2013-06-11 17:48:00,91.0,75.6,30.03,WSW,250,0.0,0.0,61,0.00,,,0.00,WeatherCatV1.02B3,2013-06-11 22:48:00,
2013-06-11 17:53:00,90.8,74.5,30.03,WSW,250,0.0,1.0,59,0.00,,,0.00,WeatherCatV1.02B3,2013-06-11 22:53:00,
2013-06-11 17:58:00,90.5,74.2,30.02,WSW,250,0.0,1.0,59,0.00,,,0.00,WeatherCatV1.02B3,2013-06-11 22:58:00,
2013-06-11 18:03:00,90.3,75.0,30.02,WSW,250,0.0,0.0,61,0.00,,,0.00,WeatherCatV1.02B3,2013-06-11 23:03:00,
2013-06-11 18:08:00,90.3,75.0,30.02,WSW,249,0.0,1.0,61,0.00,,,0.00,WeatherCatV1.02B3,2013-06-11 23:08:00,
2013-06-11 18:13:00,90.3,74.0,30.02,WNW,291,0.0,2.0,59,0.00,,,0.00,WeatherCatV1.02B3,2013-06-11 23:13:00,
2013-06-11 18:18:00,90.1,74.3,30.02,WNW,291,0.0,1.0,60,0.00,,,0.00,WeatherCatV1.02B3,2013-06-11 23:18:00,
2013-06-11 18:23:00,89.9,74.1,30.02,WNW,291,0.0,0.0,60,0.00,,,0.00,WeatherCatV1.02B3,2013-06-11 23:23:00,
2013-06-11 18:28:00,89.7,74.4,30.02,NW,311,1.0,2.0,61,0.00,,,0.00,WeatherCatV1.02B3,2013-06-11 23:28:00,
2013-06-11 18:33:00,89.5,74.7,30.02,NW,311,0.0,1.0,62,0.00,,,0.00,WeatherCatV1.02B3,2013-06-11 23:33:00,
2013-06-11 18:38:00,89.3,74.0,30.02,NW,311,0.0,0.0,61,0.00,,,0.00,WeatherCatV1.02B3,2013-06-11 23:38:00,
2013-06-11 18:43:00,89.1,73.9,30.02,NW,311,0.0,2.0,61,0.00,,,0.00,WeatherCatV1.02B3,2013-06-11 23:43:00,
2013-06-11 18:48:00,88.9,73.7,30.02,NW,311,0.0,0.0,61,0.00,,,0.00,WeatherCatV1.02B3,2013-06-11 23:48:00,
2013-06-11 18:53:00,88.7,74.4,30.03,NW,311,0.0,0.0,63,0.00,,,0.00,WeatherCatV1.02B3,2013-06-11 23:53:00,
2013-06-11 18:58:00,88.7,74.9,30.02,NW,311,0.0,0.0,64,0.00,,,0.00,WeatherCatV1.02B3,2013-06-11 23:58:00,
2013-06-11 19:03:00,88.6,74.8,30.02,NW,311,0.0,0.0,64,0.00,,,0.00,WeatherCatV1.02B3,2013-06-12 00:03:00,
2013-06-11 19:08:00,88.4,74.2,30.02,NW,311,0.0,0.0,63,0.00,,,0.00,WeatherCatV1.02B3,2013-06-12 00:08:00,
2013-06-11 19:13:00,88.3,74.5,30.02,NW,311,0.0,0.0,64,0.00,,,0.00,WeatherCatV1.02B3,2013-06-12 00:13:00,
2013-06-11 19:18:00,88.0,74.3,30.02,NW,311,0.0,0.0,64,0.00,,,0.00,WeatherCatV1.02B3,2013-06-12 00:18:00,
2013-06-11 19:23:00,87.8,74.5,30.03,NW,311,0.0,0.0,65,0.00,,,0.00,WeatherCatV1.02B3,2013-06-12 00:23:00,
2013-06-11 19:28:00,87.7,74.9,30.03,NW,311,0.0,0.0,66,0.00,,,0.00,WeatherCatV1.02B3,2013-06-12 00:28:00,
2013-06-11 19:33:00,87.5,74.7,30.03,NW,311,0.0,0.0,66,0.00,,,0.00,WeatherCatV1.02B3,2013-06-12 00:33:00,
2013-06-11 19:38:00,87.3,74.5,30.03,NW,311,0.0,0.0,66,0.00,,,0.00,WeatherCatV1.02B3,2013-06-12 00:38:00,
2013-06-11 19:43:00,87.1,74.8,30.03,NW,311,0.0,0.0,67,0.00,,,0.00,WeatherCatV1.02B3,2013-06-12 00:43:00,
2013-06-11 19:48:00,86.9,74.6,30.03,NW,311,0.0,0.0,67,0.00,,,0.00,WeatherCatV1.02B3,2013-06-12 00:48:00,
2013-06-11 19:53:00,86.7,74.8,30.03,NW,311,0.0,0.0,68,0.00,,,0.00,WeatherCatV1.02B3,2013-06-12 00:53:00,
2013-06-11 19:58:00,86.5,75.5,30.03,NW,311,0.0,0.0,70,0.00,,,0.00,WeatherCatV1.02B3,2013-06-12 00:58:00,
2013-06-11 20:03:00,86.3,75.8,30.03,NW,311,0.0,0.0,71,0.00,,,0.00,WeatherCatV1.02B3,2013-06-12 01:03:00,
2013-06-11 20:08:00,86.0,75.9,30.03,NW,311,0.0,0.0,72,0.00,,,0.00,WeatherCatV1.02B3,2013-06-12 01:08:00,
2013-06-11 20:13:00,85.6,75.5,30.03,NW,311,0.0,0.0,72,0.00,,,0.00,WeatherCatV1.02B3,2013-06-12 01:13:00,
2013-06-11 20:18:00,85.4,75.7,30.03,NW,311,0.0,0.0,73,0.00,,,0.00,WeatherCatV1.02B3,2013-06-12 01:18:00,
2013-06-11 20:23:00,85.0,75.8,30.03,NW,311,0.0,0.0,74,0.00,,,0.00,WeatherCatV1.02B3,2013-06-12 01:23:00,
2013-06-11 20:28:00,84.7,75.5,30.04,NW,311,0.0,0.0,74,0.00,,,0.00,WeatherCatV1.02B3,2013-06-12 01:28:00,
2013-06-11 20:33:00,84.4,75.6,30.04,NW,311,0.0,0.0,75,0.00,,,0.00,WeatherCatV1.02B3,2013-06-12 01:33:00,
2013-06-11 20:38:00,83.9,75.1,30.03,NW,311,0.0,0.0,75,0.00,,,0.00,WeatherCatV1.02B3,2013-06-12 01:38:00,
2013-06-11 20:43:00,83.5,75.1,30.04,NW,311,0.0,0.0,76,0.00,,,0.00,WeatherCatV1.02B3,2013-06-12 01:43:00,
2013-06-11 20:48:00,83.2,75.2,30.04,NW,311,0.0,0.0,77,0.00,,,0.00,WeatherCatV1.02B3,2013-06-12 01:48:00,
2013-06-11 20:53:00,82.9,74.9,30.04,NW,311,0.0,0.0,77,0.00,,,0.00,WeatherCatV1.02B3,2013-06-12 01:53:00,
2013-06-11 20:58:00,82.6,75.0,30.04,NW,311,0.0,0.0,78,0.00,,,0.00,WeatherCatV1.02B3,2013-06-12 01:58:00,
2013-06-11 21:03:00,82.4,74.8,30.05,NW,311,0.0,0.0,78,0.00,,,0.00,WeatherCatV1.02B3,2013-06-12 02:03:00,
2013-06-11 21:08:00,82.2,74.6,30.05,NW,311,0.0,0.0,78,0.00,,,0.00,WeatherCatV1.02B3,2013-06-12 02:08:00,
2013-06-11 21:13:00,82.0,74.8,30.05,NW,311,0.0,0.0,79,0.00,,,0.00,WeatherCatV1.02B3,2013-06-12 02:13:00,
2013-06-11 21:18:00,81.8,74.6,30.06,NW,311,0.0,0.0,79,0.00,,,0.00,WeatherCatV1.02B3,2013-06-12 02:18:00,
2013-06-11 21:23:00,81.6,74.8,30.06,NW,311,0.0,0.0,80,0.00,,,0.00,WeatherCatV1.02B3,2013-06-12 02:23:00,
2013-06-11 21:28:00,81.4,75.0,30.06,NW,311,0.0,0.0,81,0.00,,,0.00,WeatherCatV1.02B3,2013-06-12 02:28:00,
2013-06-11 21:33:00,81.3,74.9,30.06,NW,311,0.0,0.0,81,0.00,,,0.00,WeatherCatV1.02B3,2013-06-12 02:33:00,
2013-06-11 21:36:00,81.2,75.2,30.06,NW,311,0.0,0.0,82,0.00,,,0.00,WeatherCatV1.02B3,2013-06-12 02:36:00,
2013-06-11 21:41:00,81.0,75.0,30.06,NW,311,0.0,0.0,82,0.00,,,0.00,WeatherCatV1.02B3,2013-06-12 02:41:00,
2013-06-11 21:46:00,80.9,74.9,30.06,NW,311,0.0,0.0,82,0.00,,,0.00,WeatherCatV1.02B3,2013-06-12 02:46:00,
2013-06-11 21:51:00,80.8,74.8,30.06,NW,311,0.0,0.0,82,0.00,,,0.00,WeatherCatV1.02B3,2013-06-12 02:51:00,
2013-06-11 21:56:00,80.6,74.9,30.06,NW,311,0.0,0.0,83,0.00,,,0.00,WeatherCatV1.02B3,2013-06-12 02:56:00,
2013-06-11 22:01:00,80.5,74.8,30.06,NW,311,0.0,0.0,83,0.00,,,0.00,WeatherCatV1.02B3,2013-06-12 03:01:00,
2013-06-11 22:06:00,80.4,74.7,30.06,NW,311,0.0,0.0,83,0.00,,,0.00,WeatherCatV1.02B3,2013-06-12 03:06:00,
2013-06-11 22:11:00,80.3,75.0,30.06,NW,311,0.0,0.0,84,0.00,,,0.00,WeatherCatV1.02B3,2013-06-12 03:11:00,
2013-06-11 22:16:00,80.2,74.9,30.07,NW,311,0.0,0.0,84,0.00,,,0.00,WeatherCatV1.02B3,2013-06-12 03:16:00,
2013-06-11 22:21:00,80.1,74.8,30.06,NW,311,0.0,0.0,84,0.00,,,0.00,WeatherCatV1.02B3,2013-06-12 03:21:00,
2013-06-11 22:26:00,79.9,74.6,30.06,NW,311,0.0,0.0,84,0.00,,,0.00,WeatherCatV1.02B3,2013-06-12 03:26:00,
2013-06-11 22:31:00,79.8,74.5,30.06,NW,311,0.0,0.0,84,0.00,,,0.00,WeatherCatV1.02B3,2013-06-12 03:31:00,
2013-06-11 22:36:00,79.6,74.7,30.07,NW,311,0.0,0.0,85,0.00,,,0.00,WeatherCatV1.02B3,2013-06-12 03:36:00,
2013-06-11 22:41:00,79.4,74.5,30.07,NW,311,0.0,0.0,85,0.00,,,0.00,WeatherCatV1.02B3,2013-06-12 03:41:00,
2013-06-11 22:46:00,79.4,74.5,30.07,NW,311,0.0,0.0,85,0.00,,,0.00,WeatherCatV1.02B3,2013-06-12 03:46:00,
2013-06-11 22:51:00,79.2,74.6,30.07,NW,311,0.0,0.0,86,0.00,,,0.00,WeatherCatV1.02B3,2013-06-12 03:51:00,
2013-06-11 22:56:00,79.0,74.4,30.07,NW,311,0.0,0.0,86,0.00,,,0.00,WeatherCatV1.02B3,2013-06-12 03:56:00,
2013-06-11 23:01:00,78.9,74.3,30.07,NW,311,0.0,0.0,86,0.00,,,0.00,WeatherCatV1.02B3,2013-06-12 04:01:00,
2013-06-11 23:06:00,78.8,74.2,30.07,NW,311,0.0,0.0,86,0.00,,,0.00,WeatherCatV1.02B3,2013-06-12 04:06:00,
2013-06-11 23:11:00,78.7,74.5,30.07,NW,311,0.0,0.0,87,0.00,,,0.00,WeatherCatV1.02B3,2013-06-12 04:11:00,
2013-06-11 23:16:00,78.6,74.4,30.07,NW,311,0.0,0.0,87,0.00,,,0.00,WeatherCatV1.02B3,2013-06-12 04:16:00,
2013-06-11 23:21:00,78.5,74.3,30.07,NW,311,0.0,0.0,87,0.00,,,0.00,WeatherCatV1.02B3,2013-06-12 04:21:00,
2013-06-11 23:26:00,78.4,74.5,30.07,NW,311,0.0,0.0,88,0.00,,,0.00,WeatherCatV1.02B3,2013-06-12 04:26:00,
2013-06-11 23:31:00,78.4,74.5,30.07,NW,311,0.0,0.0,88,0.00,,,0.00,WeatherCatV1.02B3,2013-06-12 04:31:00,
2013-06-11 23:36:00,78.3,74.4,30.08,NW,311,0.0,0.0,88,0.00,,,0.00,WeatherCatV1.02B3,2013-06-12 04:36:00,
2013-06-11 23:41:00,78.2,74.3,30.07,NW,311,0.0,0.0,88,0.00,,,0.00,WeatherCatV1.02B3,2013-06-12 04:41:00,
2013-06-11 23:46:00,78.1,74.6,30.07,NW,311,0.0,0.0,89,0.00,,,0.00,WeatherCatV1.02B3,2013-06-12 04:46:00,
2013-06-11 23:51:00,78.0,74.5,30.07,NW,311,0.0,0.0,89,0.00,,,0.00,WeatherCatV1.02B3,2013-06-12 04:51:00,
2013-06-11 23:56:00,78.0,74.5,30.07,NW,311,0.0,0.0,89,0.00,,,0.00,WeatherCatV1.02B3,2013-06-12 04:56:00,